timestamp,surface_pressure_avg,surface_temp_avg,battery_voltage,lat,long
2018-11-09 00:00:00+00:00,362.3262,8.9,13.05,47.84626,-54.09684
2018-11-09 00:10:00+00:00,362.3929,8.9,12.97,47.84626,-54.09684
2018-11-09 00:20:00+00:00,358.938,8.9,13.05,47.84626,-54.09684
2018-11-09 00:30:00+00:00,359.7379,8.9,13.05,47.84626,-54.09684
2018-11-09 00:40:00+00:00,360.3963,8.9,13.05,47.84626,-54.09684
2018-11-09 00:50:00+00:00,360.3613,8.9,13.13,47.84626,-54.09684
2018-11-09 01:00:00+00:00,353.988,8.9,13.05,47.84626,-54.09684
2018-11-09 01:10:00+00:00,348.6746,8.9,12.97,47.84626,-54.09684
2018-11-09 01:20:00+00:00,346.5597,8.9,13.05,47.84626,-54.09684
2018-11-09 01:30:00+00:00,343.0229,8.9,13.05,47.84626,-54.09684
2018-11-09 01:40:00+00:00,340.4197,8.9,13.05,47.84626,-54.09684
2018-11-09 01:50:00+00:00,336.9246,8.9,13.05,47.84626,-54.09684
2018-11-09 02:00:00+00:00,333.733,8.9,13.05,47.84626,-54.09684
2018-11-09 02:10:00+00:00,329.608,8.9,12.97,47.84626,-54.09684
2018-11-09 02:20:00+00:00,325.4113,8.9,13.05,47.84626,-54.09684
2018-11-09 02:30:00+00:00,321.9297,8.9,13.05,47.84626,-54.09684
2018-11-09 02:40:00+00:00,316.908,8.9,13.05,47.84626,-54.09684
2018-11-09 02:50:00+00:00,310.693,8.8,13.05,47.84626,-54.09684
2018-11-09 03:00:00+00:00,302.8047,8.7,12.97,47.84626,-54.09684
2018-11-09 03:10:00+00:00,292.3181,8.6,12.97,47.84626,-54.09684
2018-11-09 03:20:00+00:00,287.3514,8.6,13.05,47.84626,-54.09684
2018-11-09 03:30:00+00:00,281.8097,8.5,13.05,47.84626,-54.09684
2018-11-09 03:40:00+00:00,271.6564,8.4,13.05,47.84626,-54.09684
2018-11-09 03:50:00+00:00,257.4114,8.4,13.05,47.84626,-54.09684
2018-11-09 04:00:00+00:00,249.4231,8.4,12.97,47.84626,-54.09684
2018-11-09 04:10:00+00:00,241.2214,8.4,12.97,47.84626,-54.09684
2018-11-09 04:20:00+00:00,229.2731,8.4,13.05,47.84626,-54.09684
2018-11-09 04:30:00+00:00,217.7032,8.44,13.05,47.84626,-54.09684
2018-11-09 04:40:00+00:00,213.9081,8.42,13.05,47.84626,-54.09684
2018-11-09 04:50:00+00:00,209.8481,8.4,13.05,47.84626,-54.09684
2018-11-09 05:00:00+00:00,202.8798,8.41,12.97,47.84626,-54.09684
2018-11-09 05:10:00+00:00,198.9248,8.43,12.89,47.84626,-54.09684
2018-11-09 05:20:00+00:00,195.9247,8.46,12.97,47.84626,-54.09684
2018-11-09 05:30:00+00:00,191.4048,8.49,12.97,47.84626,-54.09684
2018-11-09 05:40:00+00:00,189.9065,8.5,13.05,47.84626,-54.09684
2018-11-09 05:50:00+00:00,189.3898,8.6,13.05,47.84626,-54.09684
2018-11-09 06:00:00+00:00,188.1315,8.7,12.97,47.84626,-54.09684
2018-11-09 06:10:00+00:00,188.5365,8.7,12.89,47.84626,-54.09684
2018-11-09 06:20:00+00:00,192.5749,8.7,12.97,47.84626,-54.09684
2018-11-09 06:30:00+00:00,197.2031,8.7,12.97,47.84626,-54.09684
2018-11-09 06:40:00+00:00,200.2381,8.7,13.05,47.84626,-54.09684
2018-11-09 06:50:00+00:00,203.3898,8.75,13.05,47.84626,-54.09684
2018-11-09 07:00:00+00:00,208.2331,8.76,12.97,47.84626,-54.09684
2018-11-09 07:10:00+00:00,213.1648,8.77,12.89,47.84626,-54.09684
2018-11-09 07:20:00+00:00,216.2481,8.7,12.97,47.84626,-54.09684
2018-11-09 07:30:00+00:00,220.2231,8.7,12.97,47.84626,-54.09684
2018-11-09 07:40:00+00:00,225.0147,8.7,13.05,47.84626,-54.09684
2018-11-09 07:50:00+00:00,229.9481,8.7,13.05,47.84626,-54.09684
2018-11-09 08:00:00+00:00,237.8831,8.75,12.97,47.84626,-54.09684
2018-11-09 08:10:00+00:00,244.9164,8.8,12.89,47.84626,-54.09684
2018-11-09 08:20:00+00:00,250.8564,8.74,12.97,47.84626,-54.09684
2018-11-09 08:30:00+00:00,256.1531,8.82,12.97,47.84626,-54.09684
2018-11-09 08:40:00+00:00,263.1698,8.83,12.97,47.84626,-54.09684
2018-11-09 08:50:00+00:00,271.0581,8.8,13.05,47.84626,-54.09684
2018-11-09 09:00:00+00:00,277.963,8.8,12.97,47.84626,-54.09684
2018-11-09 09:10:00+00:00,282.0547,8.8,12.89,47.84626,-54.09684
2018-11-09 09:20:00+00:00,284.6314,8.8,12.97,47.84626,-54.09684
2018-11-09 09:30:00+00:00,290.5497,8.8,12.97,47.84626,-54.09684
2018-11-09 09:40:00+00:00,298.5513,8.8,12.97,47.84626,-54.09684
2018-11-09 09:50:00+00:00,307.2845,8.8,12.97,47.84626,-54.09684
2018-11-09 10:00:00+00:00,313.5479,8.8,12.97,47.84626,-54.09684
2018-11-09 10:10:00+00:00,320.358,8.8,12.89,47.84626,-54.09684
2018-11-09 10:20:00+00:00,327.2996,8.8,12.97,47.84626,-54.09684
2018-11-09 10:30:00+00:00,336.5347,8.8,12.97,47.84626,-54.09684
2018-11-09 10:40:00+00:00,343.6646,8.8,12.97,47.84626,-54.09684
2018-11-09 10:50:00+00:00,349.0763,8.8,13.13,47.84626,-54.09684
2018-11-09 11:00:00+00:00,359.2114,8.82,13.29,47.84626,-54.09684
2018-11-09 11:10:00+00:00,367.0929,8.89,13.53,47.84626,-54.09684
2018-11-09 11:20:00+00:00,371.1396,8.9,13.6,47.84626,-54.09684
2018-11-09 11:30:00+00:00,377.3696,8.98,14.8,47.84626,-54.09684
2018-11-09 11:40:00+00:00,383.743,9.0,14.24,47.84626,-54.09684
2018-11-09 11:50:00+00:00,385.478,9.0,14.0,47.84626,-54.09684
2018-11-09 12:00:00+00:00,387.3596,9.0,13.84,47.84626,-54.09684
2018-11-09 12:10:00+00:00,393.8046,9.0,13.68,47.84626,-54.09684
2018-11-09 12:20:00+00:00,393.4246,9.0,13.84,47.84626,-54.09684
2018-11-09 12:30:00+00:00,387.1863,8.9,13.84,47.84626,-54.09684
2018-11-09 12:40:00+00:00,388.7995,8.97,13.92,47.84626,-54.09684
2018-11-09 12:50:00+00:00,391.6345,9.0,13.92,47.84626,-54.09684
2018-11-09 13:00:00+00:00,385.9713,9.0,14.0,47.84626,-54.09684
2018-11-09 13:10:00+00:00,383.0496,9.0,14.0,47.84626,-54.09684
2018-11-09 13:20:00+00:00,383.243,9.01,16.63,47.84626,-54.09684
2018-11-09 13:30:00+00:00,378.8246,8.97,16.79,47.84626,-54.09684
2018-11-09 13:40:00+00:00,374.6329,8.96,16.47,47.84626,-54.09684
2018-11-09 13:50:00+00:00,373.9362,9.0,15.83,47.84626,-54.09684
2018-11-09 14:00:00+00:00,369.9163,8.9,14.96,47.84626,-54.09684
2018-11-09 14:10:00+00:00,362.5162,8.99,14.96,47.84626,-54.09684
2018-11-09 14:20:00+00:00,359.3746,9.0,14.72,47.84626,-54.09684
2018-11-09 14:30:00+00:00,354.8663,9.0,14.48,47.84626,-54.09684
2018-11-09 14:40:00+00:00,348.3246,8.9,14.48,47.84626,-54.09684
2018-11-09 14:50:00+00:00,343.1747,9.1,14.32,47.84626,-54.09684
2018-11-09 15:00:00+00:00,337.3646,9.0,14.88,47.84626,-54.09684
2018-11-09 15:10:00+00:00,326.5197,8.9,15.11,47.84626,-54.09684
2018-11-09 15:20:00+00:00,314.798,8.9,14.72,47.84626,-54.09684
2018-11-09 15:30:00+00:00,307.8297,8.9,14.56,47.84626,-54.09684
2018-11-09 15:40:00+00:00,296.0013,8.95,14.32,47.84626,-54.09684
2018-11-09 15:50:00+00:00,281.4297,9.1,14.24,47.84626,-54.09684
2018-11-09 16:00:00+00:00,270.2531,9.0,14.08,47.84626,-54.09684
2018-11-09 16:10:00+00:00,259.5914,8.96,14.08,47.84626,-54.09684
2018-11-09 16:20:00+00:00,248.1882,8.97,14.16,47.84626,-54.09684
2018-11-09 16:30:00+00:00,236.5731,9.0,14.24,47.84626,-54.09684
2018-11-09 16:40:00+00:00,228.2264,8.99,14.32,47.84626,-54.09684
2018-11-09 16:50:00+00:00,217.6298,8.9,14.64,47.84626,-54.09684
2018-11-09 17:00:00+00:00,207.3664,8.9,14.8,47.84626,-54.09684
2018-11-09 17:10:00+00:00,198.2365,8.9,14.48,47.84626,-54.09684
2018-11-09 17:20:00+00:00,191.0398,8.9,14.64,47.84626,-54.09684
2018-11-09 17:30:00+00:00,185.6998,8.93,14.4,47.84626,-54.09684
2018-11-09 17:40:00+00:00,179.5165,8.95,14.32,47.84626,-54.09684
2018-11-09 17:50:00+00:00,173.8081,8.98,14.24,47.84626,-54.09684
2018-11-09 18:00:00+00:00,172.6531,8.99,14.48,47.84626,-54.09684
2018-11-09 18:10:00+00:00,168.8814,9.0,14.4,47.84626,-54.09684
2018-11-09 18:20:00+00:00,164.2932,9.0,14.32,47.84626,-54.09684
2018-11-09 18:30:00+00:00,165.6048,9.0,14.4,47.84626,-54.09684
2018-11-09 18:40:00+00:00,166.4132,9.0,14.56,47.84626,-54.09684
2018-11-09 18:50:00+00:00,166.2332,9.0,14.48,47.84626,-54.09684
2018-11-09 19:00:00+00:00,169.8015,9.0,14.4,47.84626,-54.09684
2018-11-09 19:10:00+00:00,175.0048,9.0,14.24,47.84626,-54.09684
2018-11-09 19:20:00+00:00,177.8698,9.0,14.16,47.84626,-54.09684
2018-11-09 19:30:00+00:00,180.2948,8.97,14.08,47.84626,-54.09684
2018-11-09 19:40:00+00:00,189.9315,8.9,14.0,47.84626,-54.09684
2018-11-09 19:50:00+00:00,198.2981,8.9,13.92,47.84626,-54.09684
2018-11-09 20:00:00+00:00,199.8048,8.9,13.76,47.84626,-54.09684
2018-11-09 20:10:00+00:00,204.8782,8.9,13.6,47.84626,-54.09684
2018-11-09 20:20:00+00:00,212.1198,8.93,13.6,47.84626,-54.09684
2018-11-09 20:30:00+00:00,215.3981,8.98,13.53,47.84626,-54.09684
2018-11-09 20:40:00+00:00,219.6531,9.0,13.44,47.84626,-54.09684
2018-11-09 20:50:00+00:00,223.9115,9.0,13.44,47.84626,-54.09684
2018-11-09 21:00:00+00:00,227.4531,8.98,13.37,47.84626,-54.09684
2018-11-09 21:10:00+00:00,230.5881,8.93,13.21,47.84626,-54.09684
2018-11-09 21:20:00+00:00,236.4831,8.9,13.21,47.84626,-54.09684
2018-11-09 21:30:00+00:00,240.3548,8.9,13.21,47.84626,-54.09684
2018-11-09 21:40:00+00:00,243.2064,8.9,13.21,47.84626,-54.09684
2018-11-09 21:50:00+00:00,248.3964,8.9,13.21,47.84626,-54.09684
2018-11-09 22:00:00+00:00,255.6514,8.9,13.13,47.84626,-54.09684
2018-11-09 22:10:00+00:00,257.5364,8.88,13.05,47.84626,-54.09684
2018-11-09 22:20:00+00:00,258.433,8.86,13.13,47.84626,-54.09684
2018-11-09 22:30:00+00:00,264.1397,8.92,13.13,47.84626,-54.09684
2018-11-09 22:40:00+00:00,273.0013,9.0,13.13,47.84626,-54.09684
2018-11-09 22:50:00+00:00,278.198,9.0,13.13,47.84626,-54.09684
2018-11-09 23:00:00+00:00,284.1981,9.0,13.05,47.84626,-54.09684
2018-11-09 23:10:00+00:00,292.3047,9.0,12.97,47.84626,-54.09684
2018-11-09 23:20:00+00:00,301.093,9.0,13.05,47.84626,-54.09684
2018-11-09 23:30:00+00:00,307.3264,9.1,13.05,47.84626,-54.09684
2018-11-09 23:40:00+00:00,318.1663,9.17,13.05,47.84626,-54.09684
2018-11-09 23:50:00+00:00,324.5347,9.19,13.13,47.84626,-54.09684
